Location: High Meadows Obseravatory
(40.7417°N, 111.5713°W)
Time: 13:17:36
(UTC-07:00)

Hubble Space Telescope - Visible Passes

Search period start: 30 November 2022 00:00
Search period end: 10 December 2022 00:00
Orbit: 530 x 534 km, 28.5° (Epoch: 30 November)

Date Brightness Start Highest point End Pass type
(mag) Time Alt. Az. Time Alt. Az. Time Alt. Az.
07 Dec 3.7 06:16:02 10° S 06:16:20 10° SSE 06:16:38 10° SSE visible
08 Dec 3.5 06:02:16 10° S 06:03:34 11° SSE 06:04:50 10° SSE visible
09 Dec 3.4 05:49:05 10° SSW 05:50:47 12° S 05:52:29 10° SE visible
